Location: Aldenham
(51.6667°N, 0.3500°W)
Time: 03:51:44
(UTC+00:00)

A-11 Canister half - Pass Details

Date: 24 February 2026
Orbit: 1512 x 1687 km, 47.2° (Epoch: 7 March)

Event Time Altitude Azimuth Distance (km) Brightness Sun altitude
Rises 18:07:59 0° 203° (SSW) 4,920 12.1 -6.2°
Reaches altitude 10° 18:11:39 10° 193° (SSW) 3,942 11.4 -6.8°
Maximum altitude 18:19:56 30° 137° (SE) 2,692 10.0 -8.1°
Enters shadow 18:27:57 11° 83° (E) 3,874 10.4 -9.3°
Drops below altitude 10° 18:28:10 10° 82° (E) 3,926 - -9.3°
Sets 18:31:47 0° 73° (ENE) 4,898 - -9.9°
